Flag Weather past 2 weeks in Honolulu, Hawaii, U.S.A.

Now
75 °F

Passing clouds.


Feels Like: 76 °F
Forecast: 69 / 77 °F
Wind: 3 mph from Northwest

Location: Honolulu International Airport

Current Time: Nov 24, 2014 at 2:46:18 AM

Latest Report: Nov 24, 2014 at 1:53 AM


Visibility: 10 mi

Pressure: 29.87 "Hg

Humidity: 79%

Dew point: 68 °F

Location of HonoluluLocation

Historic Weather in Honolulu — Graph

°F

Honolulu temperature yesterday

Maximum temperature yesterday: 83 °F (at 11:53 AM)
Minimum temperature yesterday: 68 °F (at 6:53 AM)
Average temperature yesterday: 77 °F

Past Weeks' High & Low Weather Summary

 TemperatureHumidityPressure
High86 °F (Nov 20, 1:53 PM)97% (Nov 14, 11:53 PM)30.14 "Hg (Nov 14, 11:53 PM)
Low67 °F (Nov 11, 2:53 AM)46% (Nov 17, 1:53 PM)29.80 "Hg (Nov 15, 2:53 PM)
Average77 °F70%29.97 "Hg
* Reported Nov 9 1:53 AM — Nov 24 1:53 AM, Honolulu, Weather by CustomWeather, © 2014

Note: Actual official high and low records may vary slightly from our data, if they occured in-between our weather recording intervals... More about our weather records

Advertising

Honolulu weather history for previous 24 hours

 ConditionsComfort  
Time TempWeatherWind HumidityBarometerVisibility
1:53 AM
Nov 24
75 °FPassing clouds.3 mph79%29.87 "Hg10 mi
12:53 AM75 °FPartly cloudy.7 mph82%29.88 "Hg10 mi
11:53 PM
Nov 23
76 °FPartly cloudy.3 mph77%29.90 "Hg10 mi
10:53 PM75 °FPassing clouds.3 mph79%29.92 "Hg10 mi
9:53 PM76 °FPassing clouds.6 mph77%29.93 "Hg10 mi
8:53 PM78 °FPartly cloudy.8 mph74%29.93 "Hg10 mi
7:53 PM78 °FPartly cloudy.8 mph74%29.92 "Hg10 mi
6:53 PM78 °FPartly cloudy.8 mph76%29.90 "Hg10 mi
5:53 PM79 °FPartly cloudy.8 mph74%29.89 "Hg10 mi
4:53 PM80 °FBroken clouds.8 mph69%29.88 "Hg10 mi
3:53 PM81 °FMore clouds than sun.10 mph65%29.88 "Hg10 mi
2:53 PM81 °FBroken clouds.9 mph67%29.89 "Hg10 mi
1:53 PM81 °FPartly sunny.8 mph65%29.90 "Hg10 mi
12:53 PM83 °FBroken clouds.10 mph61%29.93 "Hg10 mi
11:53 AM83 °FScattered clouds.9 mph59%29.95 "Hg10 mi
10:53 AM82 °FScattered clouds.7 mph56%29.99 "Hg10 mi
9:53 AM82 °FPartly sunny.3 mph55%30.00 "Hg10 mi
8:53 AM78 °FScattered clouds.6 mph64%30.01 "Hg10 mi
7:53 AM73 °FScattered clouds.5 mph79%30.00 "Hg10 mi
6:53 AM68 °FPassing clouds.No wind87%29.97 "Hg10 mi
5:53 AM70 °FPassing clouds.No wind87%29.96 "Hg10 mi
4:53 AM71 °FPassing clouds.No wind87%29.96 "Hg10 mi
3:53 AM71 °FPassing clouds.5 mph90%29.97 "Hg10 mi
2:53 AM73 °FPassing clouds.No wind81%29.98 "Hg10 mi
Weather by CustomWeather, © 2014

See weather overviewHow to use our weather pages